map of MKZ home
Great Circle Mapper logo
MKZ - Airport
Location
City:  Batu Berendam, Melaka, Malaysia
Near (Alt.):Malacca
Name:Batu Berendam
ICAO / IATA:WMKM / MKZ

Details
Type:Airport (Aerodrome, Airfield)
Latitude:215'48"N (2.263361)
Longitude:10215'06"E (102.251553)
Datum:WGS 1984
Elevation:35 ft (11 m)
Runways:1
Longest:4501 × 121 ft (1372 × 37 m), paved

Time
Time Zone:UTC+8
Local Time:

Weather
METAR:WMKM 271600Z 24002KT 9999 FEW028 BKN140 BKN270 28/25 Q1011
TAF:WMKM 271700Z 2718/2818 02005KT 9999 FEW017CB BKN280
TEMPO 2719/2723 5000 TSRA FEW015CB SCT018 BKN150

Related Locations
Nearby:
Farthest:TSC: 12434 mi / 20010 km
Taisha, Morona-Santiago, EC

Find:

   beyond  
but within

Other Information
Maps:
NOTAMs:
Links:
Sources:

  
flag of Malaysia
flag of Melaka
  

Sectional Chart

Flight Planning
at skyvector.com

Satellite Image

Google Maps Satellite View

 

Copyright © 2004-2014 Karl L. Swartz. All rights reserved.
The Great Circle Mapper name and logo are trademarks of the Great Circle Mapper.
All other trademarks mentioned herein belong to their respective owners.
Please see credits for attibutions and further copyright information.

  Follow gcmap on Facebook Follow gcmap on Twitter

hCard Microformat

Geo Microformat